FW2520 Weather Reports


time (UTC)temp
C
wind
direction
speed
KPH
gust
KPH
rain 1hr
cm
rain 24hr
cm
rain mn
cm
humidity
%
barometer
mb
20260508184500 20 221 8.0 16.1 0.00 0.25 0.08 31 1017.4
20260508183100 20 286 3.2 17.7 0.03 0.25 0.08 30 1017.6
20260508181600 20 309 9.7 16.1 0.03 0.25 0.08 30 1017.5
20260508180059 19 80 0.0 12.9 0.03 0.25 0.08 34 1017.6
20260508173059 19 266 4.8 11.3 0.00 0.23 0.05 31 1018.1
20260508171559 20 244 4.8 14.5 0.00 0.23 0.05 29 1018.2
20260508170058 19 183 3.2 8.0 0.00 0.23 0.05 31 1018.4
20260508163054 18 92 1.6 8.0 0.00 0.25 0.05 32 1018.9
20260508161558 18 144 3.2 12.9 0.00 0.25 0.05 33 1019.0
20260508160049 17 292 1.6 6.4 0.03 0.25 0.05 33 1019.4
20260508153048 17 5 1.6 9.7 0.03 0.28 0.05 33 1019.7
20260508151551 17 360 4.8 12.9 0.03 0.28 0.05 33 1019.6
20260508150058 17 125 3.2 9.7 0.00 0.25 0.03 32 1019.6
20260508144546 17 24 3.2 8.0 0.00 0.25 0.03 33 1019.7
20260508143058 17 315 1.6 8.0 0.00 0.25 0.03 35 1019.8
20260508140046 16 76 3.2 16.1 0.00 0.25 0.03 40 1020.0
20260508134535 16 35 9.7 16.1 0.00 0.25 0.03 38 1019.9
20260508133032 15 88 1.6 12.9 0.03 0.28 0.03 42 1019.9
20260508130027 14 51 6.4 9.7 0.03 0.28 0.03 47 1019.7
20260508124524 13 38 4.8 9.7 0.03 0.28 0.03 52 1019.5
20260508123021 13 43 3.2 8.0 0.00 0.28 0.00 52 1019.3
20260508120014 12 41 1.6 8.0 0.00 0.28 0.00 54 1018.9
20260508114510 11 348 1.6 4.8 0.00 0.28 0.00 56 1018.8
20260508113008 10 346 1.6 3.2 0.00 0.30 0.00 57 1018.3
20260508110005 9 346 1.6 6.4 0.00 0.30 0.00 59 1017.8
20260508104502 9 346 0.0 4.8 0.00 0.30 0.00 59 1017.6
20260508103103 9 346 0.0 6.4 0.00 0.30 0.00 60 1017.4
20260508100055 10 340 1.6 3.2 0.00 0.30 0.00 60 1017.1
20260508094552 10 339 1.6 6.4 0.03 0.30 0.00 59 1016.9
20260508093051 10 337 0.0 4.8 0.03 0.36 0.30 58 1017.0
20260508090047 10 338 1.6 6.4 0.03 0.36 0.30 60 1016.6
20260508084555 10 337 1.6 4.8 0.03 0.36 0.30 60 1016.6
20260508083053 10 333 1.6 6.4 0.00 0.36 0.28 61 1016.4
20260508080059 11 317 0.0 1.6 0.00 0.36 0.28 59 1016.2
20260508074542 11 317 0.0 4.8 0.00 0.36 0.28 60 1016.0
20260508073049 11 317 0.0 1.6 0.00 0.41 0.28 61 1015.8
20260508070038 12 317 0.0 0.0 0.00 0.41 0.28 61 1015.7
20260508064545 12 317 0.0 1.6 0.00 0.41 0.28 62 1015.6
20260508063037 12 317 0.0 3.2 0.00 0.48 0.28 61 1015.5
20260508060032 12 317 0.0 1.6 0.03 0.48 0.28 60 1015.7
20260508054542 12 317 0.0 1.6 0.03 0.48 0.28 60 1015.8
20260508053028 13 317 0.0 0.0 0.03 0.53 0.28 57 1015.7
20260508050024 13 317 0.0 3.2 0.00 0.51 0.25 53 1015.6
20260508044523 14 317 0.0 3.2 0.00 0.51 0.25 51 1015.3
20260508043021 14 317 0.0 4.8 0.00 0.61 0.25 51 1015.2
20260508040035 15 317 1.6 4.8 0.00 0.61 0.25 48 1015.2
20260508034513 15 317 1.6 4.8 0.00 0.61 0.25 46 1015.0
20260508033014 15 318 0.0 4.8 0.00 0.71 0.25 45 1015.0
20260508030012 16 338 3.2 8.0 0.00 0.71 0.25 44 1014.8
20260508024519 16 311 1.6 6.4 0.00 0.89 0.25 43 1014.7
20260508023010 16 323 1.6 6.4 0.03 0.89 0.25 42 1014.4
20260508020001 16 315 1.6 14.5 0.03 0.89 0.25 42 1014.0
20260508014559 17 276 3.2 14.5 0.03 0.89 0.25 43 1013.8
20260508013057 17 295 3.2 9.7 0.00 1.09 0.23 44 1013.4
20260508010055 17 343 4.8 14.5 0.00 1.09 0.23 43 1013.0
20260508004555 17 300 8.0 14.5 0.00 1.09 0.23 44 1012.9
20260508003053 18 314 3.2 14.5 0.00 1.45 0.23 47 1012.4
20260508000057 18 34 6.4 12.9 0.03 1.45 0.23 57 1011.6
20260507234556 18 24 6.4 14.5 0.03 1.45 0.23 57 1011.3
20260507233110 18 15 8.0 19.3 0.03 1.60 0.23 58 1011.2
20260507230051 19 19 11.3 27.4 0.00 1.57 0.20 58 1010.6
20260507224549 20 45 11.3 29.0 0.00 1.57 0.20 57 1010.0
20260507223057 23 42 11.3 19.3 0.00 1.57 0.20 42 1009.3
20260507220047 23 360 12.9 25.7 0.03 1.57 0.20 44 1008.7
20260507214548 24 230 6.4 16.1 0.03 1.57 0.20 49 1008.5
20260507213046 24 232 11.3 24.1 0.03 1.57 0.20 49 1008.5
20260507210104 24 244 9.7 22.5 0.00 1.55 0.18 46 1008.2
20260507204547 24 240 12.9 29.0 0.00 1.55 0.18 46 1008.2
20260507203043 25 258 9.7 22.5 0.03 1.55 0.18 45 1008.2
20260507200050 24 242 6.4 17.7 0.03 1.55 0.18 45 1008.3
20260507194548 24 230 6.4 22.5 0.03 1.55 0.18 44 1008.6
20260507193035 24 249 9.7 19.3 0.00 1.52 0.15 43 1008.6
20260507190042 23 227 9.7 19.3 0.03 1.52 0.15 44 1009.3